Regional Weather Roundup
Issued by NWS

Home | Current Version | Previous Version | Text Only | Print | Product List | Glossary On
Versions: 1 2 3 4 5 6 7 8 9 10 11 12 13 14 15 16 17 18 19 20 21 22 23 24 25 26 27 28 29 30 31 32 33 34 35 36 37 38 39 40 41 42 43 44 45 46 47 48 49 50
000
ASCA44 KEWX 160220
RWRMX

LATIN AMERICA AND CARIBBEAN REGIONAL WEATHER ROUNDUP
NATIONAL WEATHER SERVICE AUSTIN/SAN ANTONIO TX
800 PM CST FRI DEC 15 2017

NOTE: "FAIR" INDICATED FEW OR NO CLOUDS BELOW 12,000 FEET WITH NO
SIGNIFICANT WEATHER AND/OR OBSTRUCTIONS TO VISIBILITY.

BAJA CALIFORNIA

CITY           SKY/WX    TMP DP  RH WIND       PRES   REMARKS
LORETO         PTCLDY    72  46  40 CALM      29.88R
LA PAZ         PTCLDY    66  52  59 NE7       29.92R VSB 1
MEXICALI       CLEAR     66  18  15 CALM      30.00F
S.J. DEL CABO  MOCLDY    63  54  72 SW12      29.93R
TIJUANA        CLEAR     64  25  22 NW6       30.03R

NORTHWESTERN MEXICO

CITY           SKY/WX    TMP DP  RH WIND       PRES   REMARKS
CULIACAN       CLEAR     66  54  63 CALM      29.89R
DURANGO        LGT RAIN  43  43 100 NE6       30.19R WCI  39
GUAYMAS        CLEAR     72  55  56 W6        29.83R
HERMOSILLO     CLEAR     75  23  14 N6        29.93R
CD. JUAREZ     CLEAR     45  23  42 CALM      30.20R
LOS MOCHIS     PTCLDY    68  52  56 N6        29.89R
OBREGON        PTCLDY    68  46  45 NW2       29.85R

NORTHEASTERN MEXICO

CITY           SKY/WX    TMP DP  RH WIND       PRES   REMARKS
CHIHUAHUA      MOCLDY    39  27  60 E5        30.20F WCI  36
MATAMOROS      CLOUDY    46  45  93 NW15      30.28R WCI  40
SALTILLO       FOG       32  27  80 CALM      30.24S VSB 1/4
CD. VICTORIA   CLOUDY    50  41  71 MISG      30.30R

WESTERN MEXICO

CITY           SKY/WX    TMP DP  RH WIND       PRES   REMARKS
AGUASCALIENTES CLOUDY    57  45  62 NE6       30.13R
COLIMA         MOCLDY    72  57  60 CALM      30.01R
DEL BAJIO      MOCLDY    63  43  48 CALM      30.17R
GUADALAJARA    CLOUDY    68  36  30 SW8       30.08R
MANZANILLO     CLOUDY    77  72  83 CALM      29.89R
MAZATLAN       MOCLDY    68  63  83 CALM      29.91R
P. VALLARTA    CLOUDY    68  66  94 NE5       29.91R
URUAPAN        MOCLDY    64  54  68 CALM      30.12R
ZACATECAS      CLOUDY    43  37  81 NE7       30.17R WCI  39

CENTRAL MEXICO

CITY           SKY/WX    TMP DP  RH WIND       PRES   REMARKS
CUERNAVACA       N/A    N/A N/A N/A MISG        N/A
MEXICO CITY    PTCLDY    64  34  32 SE14      30.24R
POZA RICA        N/A    N/A N/A N/A MISG        N/A
PUEBLA         CLEAR     54  37  54 SE8       30.25R
QUERETARO      MOCLDY    52  43  71 MISG      30.24R
S. LUIS POTOSI CLOUDY    48  37  66 E8        30.19R WCI  45
TAMPICO        CLOUDY    57  48  72 MISG      30.24R
TOLUCA         CLEAR     52  39  62 E7        30.29R

SOUTHERN MEXICO

CITY           SKY/WX    TMP DP  RH WIND       PRES   REMARKS
ACAPULCO       PTCLDY    79  73  83 CALM      29.87R
B. DE HUATULCO CLEAR    N/A N/A N/A CALM      29.93R
OAXACA         PTCLDY    68  48  49 NE6       30.19R
P. ESCONDIDO     N/A    N/A N/A N/A MISG        N/A
VERACRUZ       MOCLDY    72  61  68 N16       30.09R
ZIHUATANEJO    CLEAR     79  68  69 CALM      29.88R

YUCATAN PENINSULA

CITY           SKY/WX    TMP DP  RH WIND       PRES   REMARKS
CAMPECHE       MOCLDY    77  73  88 N7        30.00R
CANCUN         CLOUDY    73  68  83 N6        30.07R
CHETUMAL       CLOUDY    77  72  83 CALM      30.02R
CD. DEL CARMEN CLEAR    N/A N/A N/A N12       30.05R
COZUMEL        MOCLDY    79  72  78 E13       30.04R
MERIDA         CLOUDY    75  68  78 NE5       30.06R
MINATITLAN       N/A    N/A N/A N/A MISG        N/A
TAPACHULA      MOCLDY    75  70  83 CALM      29.87
TUX. GUTIERREZ MOCLDY    72  63  73 NW15G26   30.01R
VILLAHERMOSA   CLEAR     68  68 100 CALM      30.07R

CENTRAL AMERICA

CITY           SKY/WX    TMP DP  RH WIND       PRES   REMARKS
BELIZE CITY    PTCLDY    75  72  88 N6        30.00R
MANAGUA        PTCLDY    75  70  83 SE7       29.86R

CARIBBEAN

CITY           SKY/WX    TMP DP  RH WIND       PRES   REMARKS
ARUBA          PTCLDY    81  73  78 E16       29.92S
CURACAO        PTCLDY    81  72  74 E15       29.97R
KINGSTON       PTCLDY    81  75  83 N8        30.00R
NASSAU         MOCLDY    73  66  78 CALM      30.15R
SAN JUAN       PTCLDY    79  72  78 E5        30.08R
SANTO DOMINGO  PTCLDY    75  72  88 NE5       30.06R
ST. CROIX      CLEAR     79  73  83 E10       30.07R
ST. KITTS      PTCLDY    77  72  83 N18       30.06R
ST. THOMAS     CLEAR     79  73  83 E9        30.06S

$$




USA.gov is the U.S. government's official web portal to all federal, state and local government web resources and services.